STARLINK-1787 (47125 NORAD) Tracking and Keplerian Element Data

This shows tracking and keplerian element data for the satellite.

Feedback or suggestion? Click here.




ElementValue
Catalog47125
NameSTARLINK-1787
Epoch Orbit182
Epoch Day20.91667824
Epoch Year2021
RAAN74.1332
Inclination53.0545
Eccentricity0.0002095
Argument of Perigee19.0494
Mean Anonmoly72.3634
Mean Motion15.62707234
Decay Rate0.00056079
L11 47125U 20088D 21020.91667824 .00056079 00000-0 61515-3 0 9993
L22 47125 53.0545 74.1332 0002095 19.0494 72.3634 15.62707234 1829

Live tracking and technical data element details for STARLINK-1787 (NORAD 47125). STARLINK-1787 can be tracked NOW for your location showing map with azimuth and elevation plus other details from your city location.

Track the satellite on the map from your city or location and see movement details for azimuth, elevation, latitude, longitude, range, height, and movement on the map or in text.







IsCatalogInMostPopularTable: catalog: 47125, numindb: 15
Update: records affected: 1



GetName: 47125 STARLINK-1787

Hit Count: updated at: Sat, 23 Jan 2021 18:11:17 GMT